Showing default

BLUEWALKER 3, 53807

Orbit data source: Space-Track

BLUEWALKER 3, 53807 is a payload satellite owned by AST & Science (US) in LEO that was launched on Sun, 11 Sep 2022 UTC via an FALCON 9 launch vehicle from the Air Force Eastern Test Range (AFETR). Payload-class satellites include a variety of spacecraft equipped with specific instruments for various scientific and technological missions. These include communications satellites like Starlink; space stations such as the ISS; scientific satellites like the Hubble; Earth observation satellites from companies like Planet Labs, Umbra, and HawkEye 360; GPS; miniature CubeSats for education and research; and military/defense satellites.

Loading next visibility...
Identifier
53807, 2022-111AL
Orbit
LEO
Country
Flag of USUS
Related business
Manufacturer
AST & Science
Mission
Partially operational Commercial Communications
Bus & Motor
BW3, Unknown motor
Mass
1,500 kg wet, 1,500 kg dry
Launch date (UTC)
2022-09-11 (4 years ago)
Launch vehicle
FALCON 9
Launch site
Air Force Eastern Test Range (AFETR)
Object type
Payload
Rocket body
Debris
Shape & HBR
Box + 1 Plate, 6.0 m
Radar Cross Section
1.500 m², Medium (>0.1 m² and < 1m²)

Expand to show TLE details & history
Last TLE update: 19 hours ago

TLE from 19 hours ago
0 BLUEWALKER 3
1 53807U 22111AL  26127.63045756  .00004254  00000-0  12322-3 0  9992
2 53807  53.2284 224.2969 0007282  58.0403 302.1309 15.37795194203961
Epoch: 2026-05-07T15:07Z
TLE epoch observation values (Epoch: 2026-05-07T15:07:51.533Z)
Latitude
-0.00001°
Longitude
131.85833°
Altitude
450.898 km
Speed
7.645 km/s
True Right ascension
14h 57m 11s
True Declination
0° 00' 00"
Sunlit
Object was in full shadow at epoch
Visualization orbit readout
Latitude
Unknown
Longitude
Unknown
Altitude
Unknown
Speed
Unknown
Apparent Right ascension
Unknown
Apparent Declination
Unknown
Sunlit
N/A
Visualization observer readout
Local Sidereal Time
18:27:12
Azimuth
Unknown
Elevation
Unknown
Doppler factor
Unknown
Orbital elements
Apogee altitude
457.851 km
Perigee altitude
447.902 km
Semi-major axis
6,831.014 km
Eccentricity
0.00073
Inclination
53.2284°
RAAN
224.2969°
Arg. of periapsis
58.0403°
True anomaly
302.0602°
Mean anomaly
302.1309°
Eccentric anomaly
302.09555°
Mean motion
3.84428 °/min
Orbital period
93.65 mins
BSTAR
0.00012322
Loading maneuver chart data...
Computing Atmospheric mass density...
Loading historical data...
Loading historical data...
Loading historical data...
Loading historical data...
Loading historical data...
Loading historical data...
Loading historical data...

Documentation

Showing up to 5 results
|